DHL707 GCFV-GOBD

Flight info

Callsign DHL707
Flight time 2h 23m
Altitude 36000
Route LORPO DCT GDV M660 DKH/N0464F380 L660 MAURI DCT PE UB600 LIMAX LIMAX1A
Aircraft B738/M-SDE2E3FGHIRWXY/LB1

Departure

Time 2026-05-08 01:38
Airport Fuerteventura Airport (GCFV)

Arrival

Time 2026-05-08 04:01
Airport Blaise Diagne International Airport (GOBD)
Time Latitude Longitude Altitude Speed Heading
2026-05-07 23:59 28.44369 -13.86832 73 ft 0 kts
2026-05-08 01:26 28.44358 -13.86832 62 ft 4 kts
2026-05-08 01:26 28.44331 -13.86833 72 ft 4 kts
2026-05-08 01:27 28.44304 -13.86834 66 ft 4 kts
2026-05-08 01:27 28.44280 -13.86835 62 ft 1 kts
2026-05-08 01:27 28.44279 -13.86835 62 ft 1 kts
2026-05-08 01:32 28.44282 -13.86827 62 ft 1 kts 79°
2026-05-08 01:32 28.44275 -13.86795 62 ft 8 kts 114°
2026-05-08 01:33 28.44213 -13.86771 63 ft 11 kts 184°
2026-05-08 01:33 28.44130 -13.86775 62 ft 13 kts 182°
2026-05-08 01:33 28.44064 -13.86718 57 ft 13 kts 101°
2026-05-08 01:33 28.44033 -13.86620 51 ft 15 kts 143°
2026-05-08 01:34 28.43924 -13.86613 48 ft 17 kts 181°
2026-05-08 01:34 28.43805 -13.86617 44 ft 18 kts 181°
2026-05-08 01:34 28.43684 -13.86620 41 ft 17 kts 182°
2026-05-08 01:34 28.43566 -13.86625 38 ft 17 kts 181°
2026-05-08 01:35 28.43452 -13.86629 35 ft 16 kts 182°
2026-05-08 01:35 28.43342 -13.86632 33 ft 15 kts 183°
2026-05-08 01:35 28.43254 -13.86592 31 ft 13 kts 111°
2026-05-08 01:35 28.43251 -13.86535 31 ft 6 kts 82°
2026-05-08 01:36 28.43271 -13.86490 31 ft 6 kts 55°
2026-05-08 01:36 28.43302 -13.86457 33 ft 6 kts 35°
2026-05-08 01:36 28.43341 -13.86443 33 ft 6 kts
2026-05-08 01:36 28.43382 -13.86441 33 ft 6 kts
2026-05-08 01:37 28.43425 -13.86439 32 ft 9 kts
2026-05-08 01:37 28.43752 -13.86428 31 ft 88 kts
2026-05-08 01:37 28.44606 -13.86400 62 ft 154 kts 359°
2026-05-08 01:37 28.45798 -13.86354 556 ft 173 kts
2026-05-08 01:38 28.46965 -13.86278 1635 ft 164 kts
2026-05-08 01:38 28.48101 -13.86127 2300 ft 179 kts 19°
2026-05-08 01:38 28.49124 -13.85177 2583 ft 208 kts 58°
2026-05-08 01:38 28.49679 -13.83575 2834 ft 228 kts 66°
2026-05-08 01:39 28.50671 -13.82147 3134 ft 237 kts 31°
2026-05-08 01:39 28.52208 -13.81503 3719 ft 233 kts 12°
2026-05-08 01:39 28.53781 -13.80975 4186 ft 241 kts 18°
2026-05-08 01:39 28.55336 -13.80244 4815 ft 239 kts 20°
2026-05-08 01:40 28.56854 -13.79476 5344 ft 242 kts 19°
2026-05-08 01:40 28.58487 -13.79048 5783 ft 243 kts 358°
2026-05-08 01:40 28.60138 -13.79374 6314 ft 243 kts 338°
2026-05-08 01:40 28.61613 -13.80423 6557 ft 260 kts 315°
2026-05-08 01:41 28.62611 -13.82165 7119 ft 268 kts 290°
2026-05-08 01:41 28.63016 -13.84237 7906 ft 270 kts 277°
2026-05-08 01:41 28.63067 -13.86356 8641 ft 273 kts 269°
2026-05-08 01:41 28.62934 -13.88559 9376 ft 278 kts 265°
2026-05-08 01:42 28.62658 -13.90720 10086 ft 282 kts 260°
2026-05-08 01:42 28.62188 -13.92937 10461 ft 299 kts 254°
2026-05-08 01:42 28.61462 -13.95251 10611 ft 322 kts 248°
2026-05-08 01:42 28.60450 -13.97616 10780 ft 343 kts 242°
2026-05-08 01:43 28.59123 -13.99964 10938 ft 363 kts 235°
2026-05-08 01:43 28.57482 -14.02200 11323 ft 373 kts 228°
2026-05-08 01:43 28.55569 -14.04213 11922 ft 376 kts 220°
2026-05-08 01:43 28.53421 -14.05935 12587 ft 379 kts 213°
2026-05-08 01:44 28.51075 -14.07325 13244 ft 383 kts 205°
2026-05-08 01:44 28.48565 -14.08347 13921 ft 385 kts 198°
2026-05-08 01:44 28.45931 -14.09002 14501 ft 390 kts 191°
2026-05-08 01:44 28.43276 -14.09607 15035 ft 388 kts 204°
2026-05-08 01:45 28.41057 -14.11268 15615 ft 382 kts 229°
2026-05-08 01:45 28.39706 -14.13805 16290 ft 377 kts 253°
2026-05-08 01:45 28.39440 -14.16742 16952 ft 378 kts 276°
2026-05-08 01:45 28.40044 -14.19657 17587 ft 380 kts 282°
2026-05-08 01:46 28.40531 -14.22604 18100 ft 381 kts 274°
2026-05-08 01:46 28.40517 -14.25611 18562 ft 382 kts 258°
2026-05-08 01:46 28.39555 -14.28419 19064 ft 384 kts 244°
2026-05-08 01:46 28.38282 -14.31089 19567 ft 385 kts 243°
2026-05-08 01:47 28.36965 -14.33751 20006 ft 388 kts 243°
2026-05-08 01:47 28.35637 -14.36422 20437 ft 390 kts 243°
2026-05-08 01:47 28.34306 -14.39112 20879 ft 392 kts 243°
2026-05-08 01:48 28.31670 -14.44501 21739 ft 395 kts 243°
2026-05-08 01:48 28.30341 -14.47234 22148 ft 396 kts 243°
2026-05-08 01:48 28.29009 -14.49974 22557 ft 398 kts 243°
2026-05-08 01:48 28.27669 -14.52732 22940 ft 400 kts 243°
2026-05-08 01:49 28.26323 -14.55501 23311 ft 402 kts 244°
2026-05-08 01:49 28.24971 -14.58282 23654 ft 404 kts 244°
2026-05-08 01:49 28.23608 -14.61079 23927 ft 406 kts 244°
2026-05-08 01:49 28.22243 -14.63889 24230 ft 407 kts 245°
2026-05-08 01:50 28.21193 -14.66890 24529 ft 405 kts 258°
2026-05-08 01:50 28.20699 -14.69989 24855 ft 405 kts 260°
2026-05-08 01:50 28.20185 -14.73132 25154 ft 406 kts 259°
2026-05-08 01:50 28.19646 -14.76282 25425 ft 408 kts 259°
2026-05-08 01:51 28.19092 -14.79440 25710 ft 409 kts 259°
2026-05-08 01:51 28.18531 -14.82606 25997 ft 410 kts 259°
2026-05-08 01:51 28.17966 -14.85779 26277 ft 411 kts 259°
2026-05-08 01:51 28.17400 -14.88956 26546 ft 412 kts 259°
2026-05-08 01:52 28.16831 -14.92149 26809 ft 414 kts 259°
2026-05-08 01:52 28.16260 -14.95349 27041 ft 415 kts 259°
2026-05-08 01:52 28.15686 -14.98567 27251 ft 417 kts 259°
2026-05-08 01:52 28.15110 -15.01796 27509 ft 418 kts 259°
2026-05-08 01:53 28.14533 -15.05019 27859 ft 417 kts 259°
2026-05-08 01:53 28.13959 -15.08227 28290 ft 414 kts 259°
2026-05-08 01:53 28.13387 -15.11413 28727 ft 411 kts 259°
2026-05-08 01:53 28.12819 -15.14581 29116 ft 410 kts 259°
2026-05-08 01:54 28.12251 -15.17740 29491 ft 409 kts 259°
2026-05-08 01:54 28.11685 -15.20884 29897 ft 407 kts 259°
2026-05-08 01:54 28.11120 -15.24018 30286 ft 405 kts 259°
2026-05-08 01:54 28.10557 -15.27138 30628 ft 404 kts 259°
2026-05-08 01:55 28.09994 -15.30253 30924 ft 404 kts 259°
2026-05-08 01:55 28.09431 -15.33361 31239 ft 403 kts 258°
2026-05-08 01:55 28.08533 -15.36362 31530 ft 406 kts 244°
2026-05-08 01:55 28.06921 -15.39001 31783 ft 412 kts 233°
2026-05-08 01:56 28.04790 -15.41216 32014 ft 421 kts 222°
2026-05-08 01:56 28.02258 -15.42946 32303 ft 430 kts 211°
2026-05-08 01:56 27.99374 -15.43995 32572 ft 444 kts 197°
2026-05-08 01:56 27.96298 -15.44463 32899 ft 447 kts 194°
2026-05-08 01:57 27.93201 -15.44816 33161 ft 448 kts 193°
2026-05-08 01:57 27.90098 -15.45132 33409 ft 448 kts 193°
2026-05-08 01:57 27.86991 -15.45447 33698 ft 448 kts 193°
2026-05-08 01:57 27.83892 -15.45773 33984 ft 447 kts 193°
2026-05-08 01:58 27.80842 -15.46109 34238 ft 446 kts 194°
2026-05-08 01:58 27.77716 -15.46466 34400 ft 446 kts 193°
2026-05-08 01:58 27.74621 -15.46829 34580 ft 447 kts 193°
2026-05-08 01:58 27.71566 -15.47192 34788 ft 447 kts 193°
2026-05-08 01:59 27.68469 -15.47560 35020 ft 447 kts 193°
2026-05-08 01:59 27.65378 -15.47928 35225 ft 447 kts 194°
2026-05-08 01:59 27.62278 -15.48298 35412 ft 448 kts 194°
2026-05-08 01:59 27.59174 -15.48667 35617 ft 448 kts 194°
2026-05-08 02:00 27.56078 -15.49034 35827 ft 448 kts 194°
2026-05-08 02:00 27.52977 -15.49401 36028 ft 448 kts 194°
2026-05-08 02:00 27.49872 -15.49769 36211 ft 449 kts 194°
2026-05-08 02:00 27.46766 -15.50137 36350 ft 449 kts 193°
2026-05-08 02:01 27.43654 -15.50505 36520 ft 450 kts 193°
2026-05-08 02:01 27.40540 -15.50873 36720 ft 450 kts 193°
2026-05-08 02:01 27.37428 -15.51240 36926 ft 450 kts 193°
2026-05-08 02:01 27.34316 -15.51607 37105 ft 450 kts 193°
2026-05-08 02:02 27.31202 -15.51975 37275 ft 450 kts 193°
2026-05-08 02:02 27.28089 -15.52342 37458 ft 450 kts 193°
2026-05-08 02:02 27.24969 -15.52709 37642 ft 450 kts 193°
2026-05-08 02:02 27.21853 -15.53076 37811 ft 450 kts 193°
2026-05-08 02:03 27.18740 -15.53443 37953 ft 451 kts 193°
2026-05-08 02:03 27.15615 -15.53811 37999 ft 453 kts 193°
2026-05-08 02:03 27.09329 -15.54552 38014 ft 454 kts 193°
2026-05-08 02:04 27.03067 -15.55284 38016 ft 451 kts 193°
2026-05-08 02:04 26.96831 -15.56014 38018 ft 450 kts 193°
2026-05-08 02:05 26.90618 -15.56741 38024 ft 448 kts 193°
2026-05-08 02:05 26.84418 -15.57468 38024 ft 447 kts 193°
2026-05-08 02:06 26.78268 -15.58187 38025 ft 447 kts 193°
2026-05-08 02:06 26.72075 -15.58911 38026 ft 448 kts 193°
2026-05-08 02:07 26.65872 -15.59636 38025 ft 449 kts 193°
2026-05-08 02:07 26.59655 -15.60360 37984 ft 450 kts 193°
2026-05-08 02:08 26.53429 -15.61085 38014 ft 451 kts 193°
2026-05-08 02:08 26.47183 -15.61811 38025 ft 452 kts 193°
2026-05-08 02:09 26.40918 -15.62539 38027 ft 453 kts 193°
2026-05-08 02:09 26.34635 -15.63268 38026 ft 455 kts 193°
2026-05-08 02:10 26.28337 -15.63998 37998 ft 455 kts 193°
2026-05-08 02:10 26.22037 -15.64726 38022 ft 456 kts 193°
2026-05-08 02:11 26.15724 -15.65456 38030 ft 457 kts 193°
2026-05-08 02:11 26.09398 -15.66187 38022 ft 458 kts 193°
2026-05-08 02:12 26.03060 -15.66918 38023 ft 458 kts 193°
2026-05-08 02:12 25.96715 -15.67649 38016 ft 458 kts 193°
2026-05-08 02:13 25.90374 -15.68379 38012 ft 458 kts 193°
2026-05-08 02:13 25.84024 -15.69109 38017 ft 459 kts 193°
2026-05-08 02:14 25.78752 -15.69715 38015 ft 459 kts 193°
2026-05-08 02:14 25.72404 -15.70443 38016 ft 458 kts 193°
2026-05-08 02:15 25.66063 -15.71170 38017 ft 458 kts 193°
2026-05-08 02:15 25.59728 -15.71895 38013 ft 457 kts 193°
2026-05-08 02:16 25.53399 -15.72620 38017 ft 457 kts 193°
2026-05-08 02:16 25.47070 -15.73343 38019 ft 457 kts 193°
2026-05-08 02:17 25.40744 -15.74065 38015 ft 457 kts 193°
2026-05-08 02:17 25.34426 -15.74786 38009 ft 456 kts 192°
2026-05-08 02:18 25.28110 -15.75505 38014 ft 456 kts 192°
2026-05-08 02:18 25.21797 -15.76224 38014 ft 456 kts 192°
2026-05-08 02:19 25.15520 -15.76938 38011 ft 457 kts 192°
2026-05-08 02:19 25.09155 -15.77661 37980 ft 457 kts 192°
2026-05-08 02:20 25.02880 -15.78373 38010 ft 457 kts 192°
2026-05-08 02:20 24.96506 -15.79085 38008 ft 457 kts 192°
2026-05-08 02:21 24.90213 -15.79755 38006 ft 458 kts 192°
2026-05-08 02:21 24.83865 -15.80427 38009 ft 458 kts 192°
2026-05-08 02:22 24.77510 -15.81102 37985 ft 459 kts 191°
2026-05-08 02:22 24.71158 -15.81779 38000 ft 459 kts 191°
2026-05-08 02:23 24.64805 -15.82455 38004 ft 459 kts 191°
2026-05-08 02:23 24.58448 -15.83132 38002 ft 459 kts 191°
2026-05-08 02:24 24.52093 -15.83807 38005 ft 459 kts 191°
2026-05-08 02:24 24.45731 -15.84483 37987 ft 459 kts 191°
2026-05-08 02:25 24.39379 -15.85156 37993 ft 459 kts 191°
2026-05-08 02:25 24.33029 -15.85829 38001 ft 458 kts 191°
2026-05-08 02:26 24.26680 -15.86501 37996 ft 458 kts 191°
2026-05-08 02:26 24.20333 -15.87172 37998 ft 458 kts 191°
2026-05-08 02:27 24.13988 -15.87842 37980 ft 458 kts 191°
2026-05-08 02:27 24.07650 -15.88511 37993 ft 458 kts 191°
2026-05-08 02:28 24.01313 -15.89179 37995 ft 457 kts 191°
2026-05-08 02:28 23.94973 -15.89847 37994 ft 458 kts 191°
2026-05-08 02:29 23.88637 -15.90514 37994 ft 458 kts 191°
2026-05-08 02:29 23.82335 -15.91177 37994 ft 458 kts 191°
2026-05-08 02:30 23.75995 -15.91857 37991 ft 457 kts 193°
2026-05-08 02:30 23.69976 -15.93659 38012 ft 446 kts 206°
2026-05-08 02:31 23.64169 -15.96047 37995 ft 446 kts 206°
2026-05-08 02:31 23.58358 -15.98426 37990 ft 447 kts 206°
2026-05-08 02:32 23.52525 -16.00774 37970 ft 447 kts 205°
2026-05-08 02:32 23.46684 -16.03104 37980 ft 448 kts 205°
2026-05-08 02:33 23.40826 -16.05435 37986 ft 448 kts 205°
2026-05-08 02:33 23.34964 -16.07766 37990 ft 449 kts 205°
2026-05-08 02:34 23.29087 -16.10101 37988 ft 450 kts 205°
2026-05-08 02:34 23.23202 -16.12438 37987 ft 451 kts 205°
2026-05-08 02:35 23.17307 -16.14776 37981 ft 451 kts 205°
2026-05-08 02:35 23.11416 -16.17110 37981 ft 451 kts 205°
2026-05-08 02:36 23.05524 -16.19443 37979 ft 451 kts 205°
2026-05-08 02:36 22.99634 -16.21773 37982 ft 450 kts 205°
2026-05-08 02:37 22.93755 -16.24096 37985 ft 450 kts 205°
2026-05-08 02:37 22.87877 -16.26416 37967 ft 449 kts 205°
2026-05-08 02:38 22.82016 -16.28728 37971 ft 448 kts 205°
2026-05-08 02:38 22.76166 -16.31034 37974 ft 447 kts 205°
2026-05-08 02:39 22.70359 -16.33320 37975 ft 447 kts 205°
2026-05-08 02:39 22.64521 -16.35617 37964 ft 447 kts 205°
2026-05-08 02:40 22.58681 -16.37913 37979 ft 447 kts 205°
2026-05-08 02:40 22.52836 -16.40208 37977 ft 447 kts 205°
2026-05-08 02:41 22.46989 -16.42502 37974 ft 447 kts 205°
2026-05-08 02:41 22.41091 -16.44814 37977 ft 448 kts 205°
2026-05-08 02:42 22.35263 -16.47097 37972 ft 449 kts 205°
2026-05-08 02:42 22.29389 -16.49395 37977 ft 449 kts 205°
2026-05-08 02:43 22.23511 -16.51693 37961 ft 449 kts 205°
2026-05-08 02:43 22.17632 -16.53988 37972 ft 449 kts 205°
2026-05-08 02:44 22.11763 -16.56279 37971 ft 448 kts 205°
2026-05-08 02:44 22.05905 -16.58563 37971 ft 448 kts 205°
2026-05-08 02:45 22.00049 -16.60844 37969 ft 447 kts 205°
2026-05-08 02:45 21.94206 -16.63119 37971 ft 446 kts 205°
2026-05-08 02:46 21.88369 -16.65389 37966 ft 445 kts 205°
2026-05-08 02:46 21.82552 -16.67662 37971 ft 444 kts 205°
2026-05-08 02:47 21.76770 -16.69985 37968 ft 443 kts 206°
2026-05-08 02:47 21.71000 -16.72312 37959 ft 443 kts 206°
2026-05-08 02:48 21.65224 -16.74633 37969 ft 443 kts 205°
2026-05-08 02:48 21.59447 -16.76948 37973 ft 444 kts 205°
2026-05-08 02:49 21.53662 -16.79263 37967 ft 444 kts 205°
2026-05-08 02:49 21.47873 -16.81578 37975 ft 444 kts 205°
2026-05-08 02:50 21.42082 -16.83893 37972 ft 444 kts 205°
2026-05-08 02:50 21.36291 -16.86206 37974 ft 444 kts 205°
2026-05-08 02:51 21.30484 -16.88505 37971 ft 445 kts 205°
2026-05-08 02:51 21.24687 -16.90730 37956 ft 445 kts 205°
2026-05-08 02:52 21.18857 -16.92960 37974 ft 445 kts 205°
2026-05-08 02:52 21.13035 -16.95195 37975 ft 444 kts 205°
2026-05-08 02:53 21.07214 -16.97432 37975 ft 444 kts 205°
2026-05-08 02:53 21.01403 -16.99663 37974 ft 444 kts 205°
2026-05-08 02:54 20.95593 -17.01892 37971 ft 443 kts 205°
2026-05-08 02:54 20.89641 -17.03708 37967 ft 451 kts 192°
2026-05-08 02:55 20.80208 -17.04405 37965 ft 453 kts 188°
2026-05-08 02:56 20.73917 -17.04813 37972 ft 453 kts 189°
2026-05-08 02:56 20.67635 -17.05255 37968 ft 452 kts 189°
2026-05-08 02:57 20.61355 -17.05717 37976 ft 452 kts 189°
2026-05-08 02:57 20.55071 -17.06182 37976 ft 453 kts 189°
2026-05-08 02:58 20.48783 -17.06647 37971 ft 453 kts 189°
2026-05-08 02:58 20.42490 -17.07111 37971 ft 454 kts 189°
2026-05-08 02:59 20.36185 -17.07575 37968 ft 454 kts 189°
2026-05-08 02:59 20.29874 -17.08039 37967 ft 455 kts 189°
2026-05-08 03:00 20.23563 -17.08502 37961 ft 454 kts 189°
2026-05-08 03:00 20.17296 -17.08963 37966 ft 454 kts 189°
2026-05-08 03:01 20.10993 -17.09424 37960 ft 454 kts 189°
2026-05-08 03:01 20.04695 -17.09886 37958 ft 454 kts 189°
2026-05-08 03:02 19.98401 -17.10346 37956 ft 453 kts 189°
2026-05-08 03:02 19.93134 -17.10732 37947 ft 452 kts 189°
2026-05-08 03:03 19.86866 -17.11189 37951 ft 451 kts 189°
2026-05-08 03:03 19.80618 -17.11646 37952 ft 450 kts 189°
2026-05-08 03:04 19.74381 -17.12101 37953 ft 449 kts 189°
2026-05-08 03:04 19.68197 -17.12553 37952 ft 448 kts 189°
2026-05-08 03:05 19.61981 -17.13006 37943 ft 447 kts 190°
2026-05-08 03:05 19.55791 -17.13456 37946 ft 445 kts 190°
2026-05-08 03:06 19.49617 -17.13906 37952 ft 444 kts 190°
2026-05-08 03:06 19.43462 -17.14353 37953 ft 443 kts 190°
2026-05-08 03:07 19.37326 -17.14799 37947 ft 442 kts 190°
2026-05-08 03:07 19.31198 -17.15245 37951 ft 441 kts 190°
2026-05-08 03:08 19.25083 -17.15681 37948 ft 440 kts 191°
2026-05-08 03:08 19.18987 -17.16127 37952 ft 438 kts 191°
2026-05-08 03:09 19.12928 -17.16568 37953 ft 435 kts 191°
2026-05-08 03:09 19.06897 -17.17005 37950 ft 434 kts 191°
2026-05-08 03:10 19.00887 -17.17440 37955 ft 432 kts 191°
2026-05-08 03:10 18.94892 -17.17874 37955 ft 431 kts 192°
2026-05-08 03:11 18.88917 -17.18305 37954 ft 430 kts 192°
2026-05-08 03:11 18.82962 -17.18735 37949 ft 429 kts 192°
2026-05-08 03:12 18.77018 -17.19164 37949 ft 428 kts 192°
2026-05-08 03:12 18.71089 -17.19592 37950 ft 427 kts 192°
2026-05-08 03:13 18.65205 -17.20016 37949 ft 427 kts 192°
2026-05-08 03:13 18.59287 -17.20442 37947 ft 426 kts 192°
2026-05-08 03:14 18.53380 -17.20867 37949 ft 425 kts 192°
2026-05-08 03:14 18.47474 -17.21292 37954 ft 425 kts 192°
2026-05-08 03:15 18.41573 -17.21716 37955 ft 425 kts 192°
2026-05-08 03:15 18.35669 -17.22138 37955 ft 425 kts 192°
2026-05-08 03:16 18.29763 -17.22558 37940 ft 425 kts 192°
2026-05-08 03:16 18.23862 -17.22978 37947 ft 425 kts 192°
2026-05-08 03:17 18.17965 -17.23398 37949 ft 425 kts 192°
2026-05-08 03:17 18.12063 -17.23818 37947 ft 425 kts 192°
2026-05-08 03:18 18.06164 -17.24237 37948 ft 425 kts 192°
2026-05-08 03:18 18.00261 -17.24657 37949 ft 425 kts 192°
2026-05-08 03:19 17.94363 -17.25075 37949 ft 424 kts 192°
2026-05-08 03:19 17.88470 -17.25493 37944 ft 424 kts 192°
2026-05-08 03:20 17.82584 -17.25911 37947 ft 424 kts 192°
2026-05-08 03:20 17.76695 -17.26328 37941 ft 424 kts 192°
2026-05-08 03:21 17.70848 -17.26742 37941 ft 424 kts 192°
2026-05-08 03:21 17.64966 -17.27159 37933 ft 424 kts 192°
2026-05-08 03:22 17.59088 -17.27574 37935 ft 423 kts 192°
2026-05-08 03:22 17.53211 -17.27990 37943 ft 423 kts 192°
2026-05-08 03:23 17.47334 -17.28405 37941 ft 423 kts 192°
2026-05-08 03:23 17.41458 -17.28820 37942 ft 423 kts 192°
2026-05-08 03:24 17.35576 -17.29235 37939 ft 424 kts 192°
2026-05-08 03:24 17.29695 -17.29650 37943 ft 424 kts 192°
2026-05-08 03:25 17.23807 -17.30064 37945 ft 424 kts 192°
2026-05-08 03:25 17.17918 -17.30479 37940 ft 424 kts 192°
2026-05-08 03:26 17.12022 -17.30894 37935 ft 425 kts 192°
2026-05-08 03:26 17.06128 -17.31308 37935 ft 425 kts 192°
2026-05-08 03:27 17.00229 -17.31723 37932 ft 425 kts 192°
2026-05-08 03:27 16.94332 -17.32137 37931 ft 425 kts 192°
2026-05-08 03:28 16.88434 -17.32551 37937 ft 425 kts 192°
2026-05-08 03:28 16.82537 -17.32965 37941 ft 425 kts 192°
2026-05-08 03:29 16.76631 -17.33379 37936 ft 425 kts 192°
2026-05-08 03:29 16.70699 -17.33338 37946 ft 433 kts 185°
2026-05-08 03:30 16.61653 -17.32635 37933 ft 434 kts 184°
2026-05-08 03:31 16.49608 -17.31755 37930 ft 434 kts 184°
2026-05-08 03:32 16.40568 -17.31133 37933 ft 434 kts 184°
2026-05-08 03:32 16.34540 -17.30720 37930 ft 434 kts 184°
2026-05-08 03:33 16.28512 -17.30305 37927 ft 434 kts 184°
2026-05-08 03:33 16.22485 -17.29891 37933 ft 434 kts 184°
2026-05-08 03:34 16.16462 -17.29478 37929 ft 434 kts 184°
2026-05-08 03:34 16.10442 -17.29065 37930 ft 434 kts 184°
2026-05-08 03:34 16.07427 -17.28858 37732 ft 437 kts 184°
2026-05-08 03:35 16.04371 -17.28653 37202 ft 440 kts 184°
2026-05-08 03:35 16.01324 -17.28443 36612 ft 439 kts 184°
2026-05-08 03:35 15.98283 -17.28233 36022 ft 438 kts 184°
2026-05-08 03:35 15.95242 -17.28024 35393 ft 439 kts 184°
2026-05-08 03:36 15.92189 -17.27815 34727 ft 441 kts 184°
2026-05-08 03:36 15.89116 -17.27606 34043 ft 444 kts 184°
2026-05-08 03:36 15.86023 -17.27396 33269 ft 447 kts 184°
2026-05-08 03:36 15.82915 -17.27184 32551 ft 448 kts 184°
2026-05-08 03:37 15.79796 -17.26971 31826 ft 450 kts 184°
2026-05-08 03:37 15.76666 -17.26756 31055 ft 452 kts 184°
2026-05-08 03:37 15.73520 -17.26542 30284 ft 454 kts 184°
2026-05-08 03:37 15.70356 -17.26326 29385 ft 457 kts 183°
2026-05-08 03:38 15.67178 -17.26109 28469 ft 458 kts 182°
2026-05-08 03:38 15.63983 -17.25892 27462 ft 462 kts 181°
2026-05-08 03:38 15.60768 -17.25672 26622 ft 463 kts 181°
2026-05-08 03:38 15.57567 -17.25452 25961 ft 460 kts 180°
2026-05-08 03:39 15.54384 -17.25232 25299 ft 457 kts 180°
2026-05-08 03:39 15.51219 -17.25015 24635 ft 455 kts 179°
2026-05-08 03:39 15.48065 -17.24799 23979 ft 453 kts 178°
2026-05-08 03:39 15.44922 -17.24585 23282 ft 452 kts 178°
2026-05-08 03:40 15.41789 -17.24371 22544 ft 450 kts 178°
2026-05-08 03:40 15.38681 -17.24159 21882 ft 446 kts 178°
2026-05-08 03:40 15.35601 -17.23948 21233 ft 442 kts 178°
2026-05-08 03:40 15.32547 -17.23740 20590 ft 438 kts 178°
2026-05-08 03:41 15.29519 -17.23534 19931 ft 435 kts 179°
2026-05-08 03:41 15.26515 -17.23329 19296 ft 431 kts 178°
2026-05-08 03:41 15.23533 -17.23127 18658 ft 428 kts 177°
2026-05-08 03:41 15.20570 -17.22926 17992 ft 425 kts 177°
2026-05-08 03:42 15.17628 -17.22727 17305 ft 421 kts 176°
2026-05-08 03:42 15.14722 -17.22530 16671 ft 416 kts 177°
2026-05-08 03:42 15.11850 -17.22335 16048 ft 411 kts 176°
2026-05-08 03:42 15.09011 -17.22142 15437 ft 406 kts 176°
2026-05-08 03:43 15.06204 -17.21952 14836 ft 402 kts 176°
2026-05-08 03:43 15.03426 -17.21763 14226 ft 398 kts 176°
2026-05-08 03:43 15.00675 -17.21577 13618 ft 394 kts 175°
2026-05-08 03:43 14.97987 -17.21394 12974 ft 390 kts 176°
2026-05-08 03:44 14.95292 -17.21212 12357 ft 386 kts 175°
2026-05-08 03:44 14.92619 -17.21030 11754 ft 383 kts 175°
2026-05-08 03:44 14.89973 -17.20851 11217 ft 378 kts 175°
2026-05-08 03:44 14.87443 -17.20680 11044 ft 353 kts 175°
2026-05-08 03:45 14.85069 -17.20514 10883 ft 331 kts 175°
2026-05-08 03:45 14.82835 -17.20363 10728 ft 312 kts 175°
2026-05-08 03:45 14.80785 -17.20227 10594 ft 295 kts 175°
2026-05-08 03:45 14.78793 -17.20093 10469 ft 279 kts 175°
2026-05-08 03:46 14.76906 -17.19966 10361 ft 264 kts 175°
2026-05-08 03:46 14.75122 -17.19843 10261 ft 250 kts 175°
2026-05-08 03:46 14.73429 -17.19727 10149 ft 237 kts 175°
2026-05-08 03:46 14.71815 -17.19620 10071 ft 231 kts 175°
2026-05-08 03:47 14.70180 -17.19510 10019 ft 242 kts 175°
2026-05-08 03:47 14.68456 -17.19391 9862 ft 254 kts 174°
2026-05-08 03:47 14.66666 -17.19263 9575 ft 261 kts 175°
2026-05-08 03:47 14.64861 -17.19143 9260 ft 257 kts 175°
2026-05-08 03:48 14.63099 -17.19027 8972 ft 250 kts 175°
2026-05-08 03:48 14.61379 -17.18913 8690 ft 244 kts 175°
2026-05-08 03:48 14.59703 -17.18801 8429 ft 238 kts 174°
2026-05-08 03:48 14.58072 -17.18690 8167 ft 232 kts 175°
2026-05-08 03:49 14.56471 -17.18582 7940 ft 229 kts 174°
2026-05-08 03:49 14.54884 -17.18475 7701 ft 228 kts 175°
2026-05-08 03:49 14.53308 -17.18369 7467 ft 226 kts 174°
2026-05-08 03:49 14.51740 -17.18262 7234 ft 225 kts 174°
2026-05-08 03:50 14.50183 -17.18157 7017 ft 223 kts 174°
2026-05-08 03:50 14.48681 -17.18056 6834 ft 215 kts 174°
2026-05-08 03:50 14.47183 -17.17955 6651 ft 211 kts 174°
2026-05-08 03:50 14.45721 -17.17856 6458 ft 210 kts 174°
2026-05-08 03:51 14.44260 -17.17757 6269 ft 211 kts 174°
2026-05-08 03:51 14.42822 -17.17660 6044 ft 207 kts 174°
2026-05-08 03:51 14.41414 -17.17565 5851 ft 197 kts 175°
2026-05-08 03:51 14.40068 -17.17475 5762 ft 189 kts 175°
2026-05-08 03:52 14.38740 -17.17286 5702 ft 205 kts 156°
2026-05-08 03:52 14.37689 -17.16312 5545 ft 206 kts 111°
2026-05-08 03:52 14.37550 -17.14909 5440 ft 199 kts 85°
2026-05-08 03:52 14.37602 -17.13471 5234 ft 200 kts 86°
2026-05-08 03:53 14.37632 -17.12060 5143 ft 195 kts 88°
2026-05-08 03:53 14.37653 -17.10662 5051 ft 196 kts 87°
2026-05-08 03:53 14.37811 -17.09265 4944 ft 197 kts 67°
2026-05-08 03:53 14.38520 -17.08081 4881 ft 194 kts 44°
2026-05-08 03:54 14.39231 -17.07506 4835 ft 192 kts 28°
2026-05-08 03:54 14.40536 -17.07200 4657 ft 194 kts
2026-05-08 03:54 14.41817 -17.07130 4660 ft 173 kts
2026-05-08 03:54 14.42979 -17.07091 4440 ft 160 kts
2026-05-08 03:55 14.44065 -17.07082 4252 ft 155 kts
2026-05-08 03:55 14.45111 -17.07083 4065 ft 153 kts 359°
2026-05-08 03:55 14.46171 -17.07089 3882 ft 153 kts 360°
2026-05-08 03:55 14.47246 -17.07098 3701 ft 155 kts 359°
2026-05-08 03:56 14.48320 -17.07107 3488 ft 154 kts 359°
2026-05-08 03:56 14.49390 -17.07118 3288 ft 151 kts 359°
2026-05-08 03:56 14.50462 -17.07139 3072 ft 155 kts 358°
2026-05-08 03:56 14.51508 -17.07170 2941 ft 150 kts 358°
2026-05-08 03:57 14.52548 -17.07191 2740 ft 150 kts 359°
2026-05-08 03:57 14.53595 -17.07191 2478 ft 149 kts
2026-05-08 03:57 14.54611 -17.07170 2268 ft 142 kts 359°
2026-05-08 03:57 14.55562 -17.07187 2063 ft 133 kts 358°
2026-05-08 03:58 14.56511 -17.07232 1758 ft 140 kts 357°
2026-05-08 03:58 14.57474 -17.07224 1690 ft 136 kts
2026-05-08 03:58 14.58417 -17.07197 1570 ft 136 kts
2026-05-08 03:58 14.59363 -17.07216 1455 ft 136 kts 358°
2026-05-08 03:59 14.60294 -17.07227 1251 ft 133 kts
2026-05-08 03:59 14.61229 -17.07223 1104 ft 138 kts
2026-05-08 03:59 14.62166 -17.07244 985 ft 131 kts
2026-05-08 03:59 14.63132 -17.07248 780 ft 142 kts
2026-05-08 04:00 14.64108 -17.07267 624 ft 139 kts
2026-05-08 04:00 14.65060 -17.07259 397 ft 135 kts
2026-05-08 04:00 14.65967 -17.07272 284 ft 124 kts 358°
2026-05-08 04:00 14.66676 -17.07278 297 ft 80 kts
2026-05-08 04:01 14.67013 -17.07278 297 ft 23 kts
2026-05-08 04:01 14.67074 -17.07218 299 ft 7 kts 72°
2026-05-08 04:01 14.67077 -17.07167 298 ft 7 kts 90°
2026-05-08 04:01 14.67076 -17.07126 297 ft 4 kts 90°
2026-05-08 04:02 14.67077 -17.07096 295 ft 5 kts 89°
2026-05-08 04:02 14.67077 -17.07051 295 ft 8 kts 89°
2026-05-08 04:02 14.67060 -17.06992 296 ft 9 kts 134°
2026-05-08 04:02 14.66999 -17.06976 293 ft 9 kts 177°
2026-05-08 04:03 14.66935 -17.06976 292 ft 9 kts 183°
2026-05-08 04:03 14.66866 -17.06927 291 ft 5 kts 90°
2026-05-08 04:03 14.66867 -17.06894 293 ft 5 kts 89°
2026-05-08 04:04 14.66867 -17.06864 295 ft 2 kts 89°
2026-05-08 04:04 14.66867 -17.06861 295 ft 0 kts 89°